{"data":{"norad_id":60419,"epoch":"2026-09-21T13:46:34.525344Z","epoch_age_seconds":193379,"freshness":"STALE","line1":"1 60419U 24142A   26264.57401071  .00001373  00000+0  17512-3 0  9990","line2":"2 60419  53.0077 356.8382 0001365  90.1164 269.9973 14.87652311114756","mean_motion":14.87652311,"eccentricity":0.0001365,"inclination_deg":53.0077,"raan_deg":356.8382,"arg_perigee_deg":90.1164,"mean_anomaly_deg":269.9973,"bstar":0.00017512,"rev_number":11475,"period_min":96.796811281262,"perigee_km":604.3198720644,"apogee_km":606.22634302376,"semimajor_km":6983.4101075441,"source":"CELESTRAK","updated_at":"2026-09-23T09:00:20.608332Z"}}